When you browse on this site, cookies collect data to enhance your experience and personalize the content and advertising you see.
Visit our Privacy Policy to learn more. By continuing to use the site, you agree to this use of cookies and data.
  • Em Portugal
  • Lista de países
  • Para 7 dias
  • Temperatura da água
  • Mapa do tempo
  • Widgets de tempo
  • user-avatar
    Iniciar Sessão

    Previsão horária em Resht

    Hoje, 25 Agosto, Domingo

    Tempo Temperatura Precipitação Vento Pressão Humidade
    00:00 +28°C° 0 mm 1 m/s 759 mmHg 68%
    01:00 +28°C° 0 mm 1 m/s 759 mmHg 67%
    02:00 +28°C° 0 mm 1 m/s 759 mmHg 66%
    03:00 +27°C° 0 mm 1 m/s 759 mmHg 65%
    04:00 +28°C° 0 mm 1 m/s 759 mmHg 64%
    05:00 +28°C° 0 mm 1 m/s 759 mmHg 62%
    06:00 +28°C° 0 mm 1 m/s 759 mmHg 61%
    07:00 +30°C° 0 mm 1 m/s 759 mmHg 53%
    08:00 +32°C° 0 mm 2 m/s 759 mmHg 46%
    09:00 +36°C° 0 mm 2 m/s 759 mmHg 38%
    10:00 +37°C° 0 mm 2 m/s 759 mmHg 36%
    11:00 +38°C° 0 mm 3 m/s 758 mmHg 33%
    12:00 +40°C° 0 mm 4 m/s 758 mmHg 31%
    13:00 +38°C° 0 mm 4 m/s 758 mmHg 31%
    14:00 +38°C° 0 mm 4 m/s 757 mmHg 32%
    15:00 +37°C° 0 mm 4 m/s 757 mmHg 33%
    16:00 +36°C° 0 mm 3 m/s 757 mmHg 37%
    17:00 +34°C° 0 mm 3 m/s 758 mmHg 40%
    18:00 +31°C° 0 mm 2 m/s 758 mmHg 44%
    19:00 +30°C° 0 mm 1 m/s 758 mmHg 47%
    20:00 +29°C° 0 mm 1 m/s 759 mmHg 50%
    21:00 +25°C° 0 mm 0 m/s 759 mmHg 53%
    22:00 +25°C° 0 mm 0 m/s 759 mmHg 53%
    23:00 +25°C° 0 mm 0 m/s 759 mmHg 53%

    Amanhã, 26 Agosto, Segunda-feira

    Tempo Temperatura Precipitação Vento Pressão Humidade
    00:00 +25°C° 0 mm 0 m/s 759 mmHg 53%
    01:00 +24°C° 0 mm 0 m/s 759 mmHg 53%
    02:00 +24°C° 0 mm 0 m/s 759 mmHg 53%
    03:00 +24°C° 0 mm 0 m/s 759 mmHg 52%
    04:00 +24°C° 0 mm 0 m/s 760 mmHg 52%
    05:00 +26°C° 0 mm 1 m/s 760 mmHg 51%
    06:00 +26°C° 0 mm 1 m/s 760 mmHg 51%
    07:00 +28°C° 0 mm 1 m/s 760 mmHg 46%
    08:00 +30°C° 0 mm 2 m/s 760 mmHg 42%
    09:00 +33°C° 0 mm 3 m/s 760 mmHg 38%
    10:00 +34°C° 0 mm 3 m/s 760 mmHg 35%
    11:00 +35°C° 0 mm 4 m/s 760 mmHg 33%
    12:00 +36°C° 0 mm 4 m/s 760 mmHg 31%
    13:00 +35°C° 0 mm 4 m/s 759 mmHg 31%
    14:00 +35°C° 0 mm 4 m/s 759 mmHg 32%
    15:00 +35°C° 0 mm 4 m/s 759 mmHg 33%
    16:00 +33°C° 0 mm 4 m/s 759 mmHg 41%
    17:00 +30°C° 0 mm 3 m/s 760 mmHg 49%
    18:00 +28°C° 0 mm 3 m/s 760 mmHg 57%
    19:00 +28°C° 0 mm 2 m/s 761 mmHg 59%
    20:00 +27°C° 0 mm 2 m/s 761 mmHg 62%
    21:00 +26°C° 0 mm 2 m/s 762 mmHg 65%
    22:00 +26°C° 0 mm 2 m/s 762 mmHg 64%
    23:00 +25°C° 0 mm 2 m/s 762 mmHg 63%

    Depois de amanhã, 27 Agosto, Terça-feira

    Tempo Temperatura Precipitação Vento Pressão Humidade
    00:00 +25°C° 0 mm 3 m/s 762 mmHg 62%
    01:00 +25°C° 0 mm 2 m/s 762 mmHg 61%
    02:00 +25°C° 0 mm 2 m/s 762 mmHg 60%
    03:00 +25°C° 0 mm 2 m/s 762 mmHg 59%
    04:00 +25°C° 0 mm 2 m/s 762 mmHg 58%
    05:00 +26°C° 0 mm 2 m/s 763 mmHg 57%
    06:00 +26°C° 0 mm 2 m/s 763 mmHg 57%
    07:00 +27°C° 0 mm 2 m/s 762 mmHg 54%
    08:00 +28°C° 0 mm 2 m/s 762 mmHg 52%
    09:00 +30°C° 0 mm 2 m/s 762 mmHg 49%
    10:00 +31°C° 0 mm 2 m/s 761 mmHg 46%
    11:00 +33°C° 0 mm 3 m/s 760 mmHg 43%
    12:00 +34°C° 0 mm 3 m/s 760 mmHg 40%
    13:00 +34°C° 0 mm 3 m/s 759 mmHg 42%
    14:00 +34°C° 0 mm 4 m/s 759 mmHg 43%
    15:00 +34°C° 0 mm 4 m/s 758 mmHg 45%
    16:00 +31°C° 0 mm 3 m/s 758 mmHg 51%
    17:00 +30°C° 0 mm 2 m/s 758 mmHg 57%
    18:00 +28°C° 0 mm 2 m/s 758 mmHg 63%
    19:00 +27°C° 0 mm 1 m/s 758 mmHg 67%
    20:00 +26°C° 0 mm 1 m/s 758 mmHg 71%
    21:00 +25°C° 0 mm 1 m/s 759 mmHg 75%
    22:00 +25°C° 0 mm 1 m/s 758 mmHg 74%
    23:00 +25°C° 0 mm 1 m/s 758 mmHg 74%

    28 Agosto, Quarta-feira

    Tempo Temperatura Precipitação Vento Pressão Humidade
    00:00 +25°C° 0 mm 1 m/s 758 mmHg 73%
    01:00 +25°C° 0 mm 1 m/s 758 mmHg 74%
    02:00 +25°C° 0 mm 1 m/s 758 mmHg 75%
    03:00 +25°C° 0 mm 1 m/s 757 mmHg 76%
    04:00 +25°C° 0 mm 1 m/s 758 mmHg 76%
    05:00 +25°C° 0 mm 1 m/s 758 mmHg 76%
    06:00 +25°C° 0 mm 1 m/s 758 mmHg 76%
    07:00 +26°C° 0 mm 1 m/s 758 mmHg 70%
    08:00 +28°C° 0 mm 2 m/s 758 mmHg 64%
    09:00 +30°C° 0 mm 2 m/s 758 mmHg 57%
    10:00 +31°C° 0 mm 3 m/s 757 mmHg 54%
    11:00 +33°C° 0 mm 4 m/s 757 mmHg 51%
    12:00 +34°C° 0 mm 4 m/s 757 mmHg 49%
    13:00 +33°C° 0 mm 4 m/s 757 mmHg 49%
    14:00 +33°C° 0 mm 4 m/s 757 mmHg 50%
    15:00 +32°C° 0 mm 4 m/s 756 mmHg 50%
    16:00 +30°C° 0 mm 3 m/s 757 mmHg 55%
    17:00 +29°C° 0 mm 2 m/s 757 mmHg 60%
    18:00 +28°C° 0 mm 1 m/s 758 mmHg 65%
    19:00 +27°C° 0 mm 1 m/s 758 mmHg 67%
    20:00 +24°C° 0 mm 0 m/s 759 mmHg 70%
    21:00 +23°C° 0 mm 0 m/s 759 mmHg 72%
    22:00 +23°C° 0 mm 0 m/s 759 mmHg 73%
    23:00 +23°C° 0 mm 0 m/s 759 mmHg 73%

    29 Agosto, Quinta-feira

    Tempo Temperatura Precipitação Vento Pressão Humidade
    00:00 +25°C° 0 mm 1 m/s 760 mmHg 74%
    01:00 +24°C° 0 mm 1 m/s 760 mmHg 73%
    02:00 +24°C° 0 mm 1 m/s 760 mmHg 73%
    03:00 +24°C° 0 mm 1 m/s 760 mmHg 72%
    04:00 +24°C° 0 mm 1 m/s 760 mmHg 71%
    05:00 +25°C° 0 mm 1 m/s 760 mmHg 70%
    06:00 +25°C° 0 mm 1 m/s 760 mmHg 69%
    07:00 +27°C° 0 mm 1 m/s 760 mmHg 62%
    08:00 +29°C° 0 mm 1 m/s 760 mmHg 54%
    09:00 +31°C° 0 mm 1 m/s 759 mmHg 47%
    10:00 +32°C° 0 mm 2 m/s 759 mmHg 45%
    11:00 +34°C° 0 mm 3 m/s 759 mmHg 43%
    12:00 +35°C° 0 mm 4 m/s 758 mmHg 40%
    13:00 +35°C° 0 mm 4 m/s 758 mmHg 43%
    14:00 +34°C° 0 mm 4 m/s 757 mmHg 46%
    15:00 +34°C° 0 mm 4 m/s 757 mmHg 48%
    16:00 +32°C° 0 mm 4 m/s 757 mmHg 53%
    17:00 +30°C° 0 mm 3 m/s 757 mmHg 58%
    18:00 +29°C° 0 mm 2 m/s 758 mmHg 64%
    19:00 +28°C° 0 mm 2 m/s 758 mmHg 67%
    20:00 +27°C° 0 mm 2 m/s 759 mmHg 71%
    21:00 +26°C° 0 mm 1 m/s 759 mmHg 74%
    22:00 +26°C° 0 mm 1 m/s 759 mmHg 76%
    23:00 +25°C° 0 mm 1 m/s 759 mmHg 78%

    30 Agosto, Sexta-feira

    Tempo Temperatura Precipitação Vento Pressão Humidade
    00:00 +25°C° 0 mm 1 m/s 759 mmHg 80%
    01:00 +25°C° 0 mm 1 m/s 759 mmHg 79%
    02:00 +25°C° 0 mm 1 m/s 759 mmHg 79%
    03:00 +25°C° 0 mm 1 m/s 759 mmHg 79%
    04:00 +25°C° 0 mm 1 m/s 759 mmHg 79%
    05:00 +26°C° 0 mm 1 m/s 759 mmHg 79%
    06:00 +26°C° 0 mm 1 m/s 759 mmHg 78%
    07:00 +26°C° 0.1 mm 1 m/s 759 mmHg 76%
    08:00 +27°C° 0.1 mm 2 m/s 759 mmHg 75%
    09:00 +27°C° 0.1 mm 2 m/s 759 mmHg 73%
    10:00 +29°C° 0 mm 3 m/s 759 mmHg 65%
    11:00 +31°C° 0 mm 3 m/s 758 mmHg 57%
    12:00 +34°C° 0 mm 4 m/s 757 mmHg 49%
    13:00 +33°C° 0 mm 4 m/s 757 mmHg 52%
    14:00 +32°C° 0 mm 4 m/s 757 mmHg 56%
    15:00 +30°C° 0 mm 4 m/s 757 mmHg 60%
    16:00 +29°C° 0 mm 3 m/s 757 mmHg 64%
    17:00 +28°C° 0 mm 3 m/s 758 mmHg 68%
    18:00 +27°C° 0 mm 3 m/s 758 mmHg 73%
    19:00 +26°C° 0.1 mm 2 m/s 758 mmHg 75%
    20:00 +26°C° 0.1 mm 2 m/s 759 mmHg 77%
    21:00 +25°C° 0.1 mm 1 m/s 759 mmHg 79%
    22:00 +25°C° 0 mm 1 m/s 759 mmHg 80%
    23:00 +25°C° 0 mm 1 m/s 759 mmHg 80%
    Mostrar mais